Time,TemperatureF,DewpointF,PressureIn,WindDirection,WindDirectionDegrees,WindSpeedMPH,WindSpeedGustMPH,Humidity,HourlyPrecipIn,Conditions,Clouds,dailyrainin,SoftwareType,DateUTC
2013-07-06 08:30:00,55.4,52.8,29.53,SW,225,10.3,10.3,91,0.00,,,0.00,VWS V14.01,2013-07-06 15:30:00,
2013-07-06 08:35:00,55.4,52.8,29.53,West,270,7.4,7.4,91,0.00,,,0.00,VWS V14.01,2013-07-06 15:35:00,
2013-07-06 08:51:00,56.1,52.9,29.56,SW,225,14.8,14.8,89,0.00,,,0.00,VWS V14.01,2013-07-06 15:51:00,
2013-07-06 08:56:00,56.5,53.3,29.56,WSW,248,1.6,1.6,89,0.00,,,0.00,VWS V14.01,2013-07-06 15:56:00,
2013-07-06 09:01:00,57.0,53.5,29.56,WSW,248,6.9,6.9,88,0.00,,,0.00,VWS V14.01,2013-07-06 16:01:00,
2013-07-06 09:06:00,57.2,53.1,29.56,NW,315,2.7,2.7,86,0.00,,,0.00,VWS V14.01,2013-07-06 16:06:00,
2013-07-06 09:11:00,57.9,53.4,29.53,WSW,248,6.0,6.0,85,0.00,,,0.00,VWS V14.01,2013-07-06 16:11:00,
2013-07-06 09:16:00,58.3,53.5,29.53,South,180,5.4,5.4,84,0.00,,,0.00,VWS V14.01,2013-07-06 16:16:00,
2013-07-06 09:21:00,58.1,53.0,29.53,WSW,248,10.3,10.3,83,0.00,,,0.00,VWS V14.01,2013-07-06 16:21:00,
2013-07-06 09:26:00,58.3,52.8,29.53,West,270,7.6,7.6,82,0.00,,,0.00,VWS V14.01,2013-07-06 16:26:00,
2013-07-06 09:31:00,58.3,52.8,29.53,SSW,202,12.8,12.8,82,0.00,,,0.00,VWS V14.01,2013-07-06 16:31:00,
2013-07-06 09:36:00,58.6,53.2,29.53,SW,225,6.0,6.0,82,0.00,,,0.00,VWS V14.01,2013-07-06 16:36:00,
2013-07-06 09:42:00,59.0,52.8,29.53,WSW,248,11.9,11.9,80,0.00,,,0.00,VWS V14.01,2013-07-06 16:42:00,
2013-07-06 09:47:00,59.0,52.8,29.53,SW,225,8.1,8.1,80,0.00,,,0.00,VWS V14.01,2013-07-06 16:47:00,
2013-07-06 09:52:00,59.0,52.2,29.53,WSW,248,12.3,12.3,78,0.00,,,0.00,VWS V14.01,2013-07-06 16:52:00,
2013-07-06 09:57:00,59.4,52.5,29.53,WSW,248,12.3,12.3,78,0.00,,,0.00,VWS V14.01,2013-07-06 16:57:00,
2013-07-06 10:02:00,59.4,52.5,29.53,South,180,7.2,7.2,78,0.00,,,0.00,VWS V14.01,2013-07-06 17:02:00,
2013-07-06 10:07:00,59.2,52.3,29.53,WSW,248,11.9,11.9,78,0.00,,,0.00,VWS V14.01,2013-07-06 17:07:00,
2013-07-06 10:12:00,59.2,52.0,29.53,SSW,202,12.8,12.8,77,0.00,,,0.00,VWS V14.01,2013-07-06 17:12:00,
2013-07-06 10:17:00,59.2,52.0,29.53,WSW,248,6.0,6.0,77,0.00,,,0.00,VWS V14.01,2013-07-06 17:17:00,
2013-07-06 10:22:00,59.7,52.5,29.53,WSW,248,6.5,6.5,77,0.00,,,0.00,VWS V14.01,2013-07-06 17:22:00,
2013-07-06 10:27:00,59.4,51.5,29.53,SW,225,13.2,13.2,75,0.00,,,0.00,VWS V14.01,2013-07-06 17:27:00,
2013-07-06 10:32:00,59.7,51.8,29.53,SSW,202,10.1,10.1,75,0.00,,,0.00,VWS V14.01,2013-07-06 17:32:00,
2013-07-06 10:37:00,59.9,51.6,29.53,SW,225,9.8,9.8,74,0.00,,,0.00,VWS V14.01,2013-07-06 17:37:00,
2013-07-06 10:42:00,59.9,51.6,29.53,WSW,248,5.6,5.6,74,0.00,,,0.00,VWS V14.01,2013-07-06 17:42:00,
2013-07-06 10:48:00,60.6,52.3,29.53,WSW,248,5.4,5.4,74,0.00,,,0.00,VWS V14.01,2013-07-06 17:48:00,
2013-07-06 10:53:00,60.6,51.9,29.53,SW,225,10.5,10.5,73,0.00,,,0.00,VWS V14.01,2013-07-06 17:53:00,
2013-07-06 10:58:00,60.4,51.8,29.53,WSW,248,13.4,13.4,73,0.00,,,0.00,VWS V14.01,2013-07-06 17:58:00,
2013-07-06 11:03:00,60.1,51.4,29.53,WSW,248,10.7,10.7,73,0.00,,,0.00,VWS V14.01,2013-07-06 18:03:00,
2013-07-06 11:08:00,60.1,51.4,29.53,WSW,248,12.5,12.5,73,0.00,,,0.00,VWS V14.01,2013-07-06 18:08:00,
2013-07-06 11:13:00,60.4,51.8,29.53,SW,225,11.4,11.4,73,0.00,,,0.00,VWS V14.01,2013-07-06 18:13:00,
2013-07-06 11:18:00,60.4,51.4,29.53,WSW,248,14.5,14.5,72,0.00,,,0.00,VWS V14.01,2013-07-06 18:18:00,
2013-07-06 11:23:00,60.3,51.6,29.53,WSW,248,9.8,9.8,73,0.00,,,0.00,VWS V14.01,2013-07-06 18:23:00,
2013-07-06 11:28:00,60.3,51.6,29.53,West,270,13.9,13.9,73,0.00,,,0.00,VWS V14.01,2013-07-06 18:28:00,
2013-07-06 11:34:00,60.8,52.1,29.53,WSW,248,6.0,6.0,73,0.00,,,0.00,VWS V14.01,2013-07-06 18:34:00,
2013-07-06 11:39:00,61.0,52.3,29.53,WSW,248,6.0,6.0,73,0.00,,,0.00,VWS V14.01,2013-07-06 18:39:00,
2013-07-06 11:45:00,61.3,52.2,29.53,SW,225,10.3,10.3,72,0.00,,,0.00,VWS V14.01,2013-07-06 18:45:00,
2013-07-06 11:50:00,61.3,51.9,29.53,WSW,248,10.7,10.7,71,0.00,,,0.00,VWS V14.01,2013-07-06 18:50:00,
2013-07-06 11:55:00,61.0,51.9,29.53,WSW,248,15.4,15.4,72,0.00,,,0.00,VWS V14.01,2013-07-06 18:55:00,
2013-07-06 12:00:00,61.0,51.9,29.53,WSW,248,13.0,13.0,72,0.00,,,0.00,VWS V14.01,2013-07-06 19:00:00,
2013-07-06 12:05:00,61.3,52.2,29.53,WSW,248,10.7,10.7,72,0.00,,,0.00,VWS V14.01,2013-07-06 19:05:00,
2013-07-06 12:10:00,61.7,52.6,29.53,West,270,13.2,13.2,72,0.00,,,0.00,VWS V14.01,2013-07-06 19:10:00,
2013-07-06 12:16:00,61.3,51.9,29.53,WSW,248,11.0,11.0,71,0.00,,,0.00,VWS V14.01,2013-07-06 19:16:00,
2013-07-06 12:21:00,61.7,52.2,29.53,West,270,13.2,13.2,71,0.00,,,0.00,VWS V14.01,2013-07-06 19:21:00,
2013-07-06 12:26:00,61.5,52.0,29.53,WSW,248,11.0,11.0,71,0.00,,,0.00,VWS V14.01,2013-07-06 19:26:00,
2013-07-06 12:31:00,61.7,52.6,29.53,SSW,202,12.8,12.8,72,0.00,,,0.00,VWS V14.01,2013-07-06 19:31:00,
2013-07-06 12:37:00,61.2,52.1,29.53,WSW,248,9.8,9.8,72,0.00,,,0.00,VWS V14.01,2013-07-06 19:37:00,
2013-07-06 12:42:00,61.3,52.2,29.53,SW,225,9.4,9.4,72,0.00,,,0.00,VWS V14.01,2013-07-06 19:42:00,
2013-07-06 12:47:00,61.0,51.9,29.53,SW,225,16.8,16.8,72,0.00,,,0.00,VWS V14.01,2013-07-06 19:47:00,
2013-07-06 12:53:00,60.8,51.7,29.53,SW,225,15.9,15.9,72,0.00,,,0.00,VWS V14.01,2013-07-06 19:53:00,
2013-07-06 12:58:00,61.2,52.1,29.53,WSW,248,15.2,15.2,72,0.00,,,0.00,VWS V14.01,2013-07-06 19:58:00,
2013-07-06 13:03:00,61.5,52.4,29.53,WSW,248,6.5,6.5,72,0.00,,,0.00,VWS V14.01,2013-07-06 20:03:00,
2013-07-06 13:08:00,61.7,52.2,29.50,WSW,248,13.2,13.2,71,0.00,,,0.00,VWS V14.01,2013-07-06 20:08:00,
2013-07-06 13:13:00,61.7,52.2,29.50,WNW,292,12.8,12.8,71,0.00,,,0.00,VWS V14.01,2013-07-06 20:13:00,
2013-07-06 13:19:00,61.9,52.8,29.50,WSW,248,14.8,14.8,72,0.00,,,0.00,VWS V14.01,2013-07-06 20:19:00,
2013-07-06 13:24:00,62.1,52.6,29.50,WSW,248,10.3,10.3,71,0.00,,,0.00,VWS V14.01,2013-07-06 20:24:00,
2013-07-06 13:29:00,62.1,52.2,29.50,SW,225,13.0,13.0,70,0.00,,,0.00,VWS V14.01,2013-07-06 20:29:00,
2013-07-06 13:34:00,61.9,52.0,29.50,WSW,248,17.2,17.2,70,0.00,,,0.00,VWS V14.01,2013-07-06 20:34:00,
2013-07-06 13:39:00,61.7,51.8,29.50,SW,225,14.8,14.8,70,0.00,,,0.00,VWS V14.01,2013-07-06 20:39:00,
2013-07-06 13:44:00,61.7,51.8,29.50,WSW,248,10.3,10.3,70,0.00,,,0.00,VWS V14.01,2013-07-06 20:44:00,
2013-07-06 13:49:00,62.2,52.7,29.50,WSW,248,3.1,3.1,71,0.00,,,0.00,VWS V14.01,2013-07-06 20:49:00,
2013-07-06 13:54:00,61.9,52.4,29.50,WSW,248,17.2,17.2,71,0.00,,,0.00,VWS V14.01,2013-07-06 20:54:00,
2013-07-06 13:59:00,61.9,52.8,29.50,WSW,248,11.0,11.0,72,0.00,,,0.00,VWS V14.01,2013-07-06 20:59:00,
2013-07-06 14:04:00,62.1,52.6,29.50,WSW,248,17.0,17.0,71,0.00,,,0.00,VWS V14.01,2013-07-06 21:04:00,
2013-07-06 14:10:00,62.1,52.6,29.50,WSW,248,13.0,13.0,71,0.00,,,0.00,VWS V14.01,2013-07-06 21:10:00,
2013-07-06 14:15:00,61.3,51.9,29.50,WSW,248,11.2,11.2,71,0.00,,,0.00,VWS V14.01,2013-07-06 21:15:00,
2013-07-06 14:20:00,61.7,51.8,29.50,WSW,248,10.7,10.7,70,0.00,,,0.00,VWS V14.01,2013-07-06 21:20:00,
2013-07-06 14:25:00,61.2,51.3,29.50,WSW,248,13.2,13.2,70,0.00,,,0.00,VWS V14.01,2013-07-06 21:25:00,
2013-07-06 14:30:00,61.0,51.9,29.50,West,270,16.8,16.8,72,0.00,,,0.00,VWS V14.01,2013-07-06 21:30:00,
2013-07-06 14:35:00,61.2,51.7,29.50,West,270,12.3,12.3,71,0.00,,,0.00,VWS V14.01,2013-07-06 21:35:00,
2013-07-06 14:41:00,61.0,51.5,29.50,WNW,292,15.2,15.2,71,0.00,,,0.00,VWS V14.01,2013-07-06 21:41:00,
2013-07-06 14:46:00,61.3,51.5,29.50,West,270,15.7,15.7,70,0.00,,,0.00,VWS V14.01,2013-07-06 21:46:00,
2013-07-06 14:51:00,61.0,51.5,29.50,West,270,23.7,23.7,71,0.00,,,0.00,VWS V14.01,2013-07-06 21:51:00,
2013-07-06 14:56:00,61.3,51.9,29.47,WSW,248,13.0,13.0,71,0.00,,,0.00,VWS V14.01,2013-07-06 21:56:00,
2013-07-06 15:01:00,61.0,51.5,29.47,SSW,202,13.2,13.2,71,0.00,,,0.00,VWS V14.01,2013-07-06 22:01:00,
2013-07-06 15:06:00,61.2,52.1,29.47,WSW,248,19.7,19.7,72,0.00,,,0.00,VWS V14.01,2013-07-06 22:06:00,
2013-07-06 15:11:00,60.6,51.9,29.47,SW,225,25.1,25.1,73,0.00,,,0.00,VWS V14.01,2013-07-06 22:11:00,
2013-07-06 15:16:00,60.1,51.8,29.47,SW,225,18.1,18.1,74,0.00,,,0.00,VWS V14.01,2013-07-06 22:16:00,
2013-07-06 15:21:00,60.1,51.8,29.47,West,270,15.2,15.2,74,0.00,,,0.00,VWS V14.01,2013-07-06 22:21:00,
2013-07-06 15:26:00,59.9,51.6,29.47,WNW,292,15.4,15.4,74,0.00,,,0.00,VWS V14.01,2013-07-06 22:26:00,
2013-07-06 15:31:00,60.1,51.8,29.47,West,270,7.6,7.6,74,0.00,,,0.00,VWS V14.01,2013-07-06 22:31:00,
2013-07-06 15:37:00,60.1,52.1,29.47,WNW,292,8.7,8.7,75,0.00,,,0.00,VWS V14.01,2013-07-06 22:37:00,
2013-07-06 15:42:00,60.1,51.4,29.47,WSW,248,17.2,17.2,73,0.00,,,0.00,VWS V14.01,2013-07-06 22:42:00,
2013-07-06 15:47:00,60.3,51.6,29.47,WSW,248,15.2,15.2,73,0.00,,,0.00,VWS V14.01,2013-07-06 22:47:00,
2013-07-06 15:52:00,59.7,51.4,29.47,North,0,10.1,10.1,74,0.00,,,0.00,VWS V14.01,2013-07-06 22:52:00,
2013-07-06 15:57:00,60.1,51.4,29.47,SW,225,16.3,16.3,73,0.00,,,0.00,VWS V14.01,2013-07-06 22:57:00,
2013-07-06 16:02:00,59.5,51.3,29.47,WSW,248,17.2,17.2,74,0.00,,,0.00,VWS V14.01,2013-07-06 23:02:00,
2013-07-06 16:07:00,59.5,51.6,29.47,WSW,248,14.3,14.3,75,0.00,,,0.00,VWS V14.01,2013-07-06 23:07:00,
2013-07-06 16:12:00,59.4,51.5,29.47,NNW,338,10.3,10.3,75,0.00,,,0.00,VWS V14.01,2013-07-06 23:12:00,
2013-07-06 16:18:00,60.1,52.1,29.47,WSW,248,14.3,14.3,75,0.00,,,0.00,VWS V14.01,2013-07-06 23:18:00,
2013-07-06 16:23:00,59.4,51.1,29.47,WSW,248,17.7,17.7,74,0.00,,,0.00,VWS V14.01,2013-07-06 23:23:00,
2013-07-06 16:28:00,60.1,52.1,29.47,WSW,248,6.3,6.3,75,0.00,,,0.00,VWS V14.01,2013-07-06 23:28:00,
2013-07-06 16:33:00,59.4,51.5,29.47,SW,225,16.3,16.3,75,0.00,,,0.00,VWS V14.01,2013-07-06 23:33:00,
2013-07-06 16:38:00,59.4,51.5,29.47,WSW,248,12.3,12.3,75,0.00,,,0.00,VWS V14.01,2013-07-06 23:38:00,
2013-07-06 16:43:00,59.0,51.8,29.47,SW,225,19.9,19.9,77,0.00,,,0.00,VWS V14.01,2013-07-06 23:43:00,
2013-07-06 16:48:00,59.0,51.8,29.47,West,270,12.3,12.3,77,0.00,,,0.00,VWS V14.01,2013-07-06 23:48:00,
2013-07-06 16:53:00,58.8,52.0,29.47,WSW,248,15.2,15.2,78,0.00,,,0.00,VWS V14.01,2013-07-06 23:53:00,
2013-07-06 16:58:00,58.8,52.0,29.47,SSW,202,19.5,19.5,78,0.00,,,0.00,VWS V14.01,2013-07-06 23:58:00,
2013-07-06 17:03:00,58.8,52.0,29.47,SSW,202,19.5,19.5,78,0.00,,,0.00,VWS V14.01,2013-07-07 00:03:00,
2013-07-06 17:08:00,58.8,52.0,29.47,SSW,202,19.5,19.5,78,0.00,,,0.00,VWS V14.01,2013-07-07 00:08:00,
2013-07-06 17:14:00,58.5,52.0,29.47,WSW,248,13.0,13.0,79,0.00,,,0.00,VWS V14.01,2013-07-07 00:14:00,
2013-07-06 17:19:00,58.5,52.0,29.47,West,270,15.2,15.2,79,0.00,,,0.00,VWS V14.01,2013-07-07 00:19:00,
2013-07-06 17:24:00,58.1,51.6,29.47,WNW,292,21.3,21.3,79,0.00,,,0.00,VWS V14.01,2013-07-07 00:24:00,
2013-07-06 17:29:00,57.9,51.8,29.47,West,270,16.1,16.1,80,0.00,,,0.00,VWS V14.01,2013-07-07 00:29:00,
2013-07-06 17:34:00,57.9,51.8,29.47,SW,225,7.4,7.4,80,0.00,,,0.00,VWS V14.01,2013-07-07 00:34:00,
2013-07-06 17:39:00,58.1,52.0,29.44,WSW,248,22.2,22.2,80,0.00,,,0.00,VWS V14.01,2013-07-07 00:39:00,
2013-07-06 17:45:00,58.1,52.0,29.44,WSW,248,26.0,26.0,80,0.00,,,0.00,VWS V14.01,2013-07-07 00:45:00,
2013-07-06 17:50:00,57.7,52.0,29.44,SSW,202,10.5,10.5,81,0.00,,,0.00,VWS V14.01,2013-07-07 00:50:00,
2013-07-06 17:55:00,57.6,51.8,29.44,WSW,248,22.2,22.2,81,0.00,,,0.00,VWS V14.01,2013-07-07 00:55:00,
2013-07-06 18:01:00,57.2,51.8,29.44,WNW,292,12.8,12.8,82,0.00,,,0.00,VWS V14.01,2013-07-07 01:01:00,
2013-07-06 18:06:00,57.2,52.1,29.44,West,270,17.2,17.2,83,0.00,,,0.00,VWS V14.01,2013-07-07 01:06:00,
2013-07-06 18:11:00,57.0,52.2,29.44,WSW,248,19.9,19.9,84,0.00,,,0.00,VWS V14.01,2013-07-07 01:11:00,
2013-07-06 18:16:00,56.8,52.1,29.44,WSW,248,12.5,12.5,84,0.00,,,0.00,VWS V14.01,2013-07-07 01:16:00,
2013-07-06 18:21:00,57.0,52.2,29.44,WSW,248,15.2,15.2,84,0.00,,,0.00,VWS V14.01,2013-07-07 01:21:00,
2013-07-06 18:26:00,57.0,52.2,29.44,WSW,248,12.5,12.5,84,0.00,,,0.00,VWS V14.01,2013-07-07 01:26:00,
2013-07-06 18:31:00,57.0,51.9,29.44,WSW,248,17.0,17.0,83,0.00,,,0.00,VWS V14.01,2013-07-07 01:31:00,
2013-07-06 18:37:00,56.8,52.1,29.44,WSW,248,17.7,17.7,84,0.00,,,0.00,VWS V14.01,2013-07-07 01:37:00,
2013-07-06 18:42:00,56.7,52.2,29.44,West,270,13.0,13.0,85,0.00,,,0.00,VWS V14.01,2013-07-07 01:42:00,
2013-07-06 18:47:00,56.7,52.5,29.44,WSW,248,12.1,12.1,86,0.00,,,0.00,VWS V14.01,2013-07-07 01:47:00,
2013-07-06 18:52:00,56.7,52.5,29.44,WSW,248,9.8,9.8,86,0.00,,,0.00,VWS V14.01,2013-07-07 01:52:00,
2013-07-06 18:58:00,56.7,52.8,29.44,WSW,248,9.6,9.6,87,0.00,,,0.00,VWS V14.01,2013-07-07 01:58:00,
2013-07-06 19:03:00,56.8,52.7,29.44,WSW,248,19.0,19.0,86,0.00,,,0.00,VWS V14.01,2013-07-07 02:03:00,
2013-07-06 19:08:00,56.7,52.8,29.44,West,270,17.7,17.7,87,0.00,,,0.00,VWS V14.01,2013-07-07 02:08:00,
2013-07-06 19:13:00,56.7,52.8,29.44,SSW,202,9.2,9.2,87,0.00,,,0.00,VWS V14.01,2013-07-07 02:13:00,
2013-07-06 19:19:00,56.3,52.8,29.44,WSW,248,11.9,11.9,88,0.00,,,0.00,VWS V14.01,2013-07-07 02:19:00,
2013-07-06 19:24:00,56.3,52.8,29.44,SSW,202,11.0,11.0,88,0.00,,,0.00,VWS V14.01,2013-07-07 02:24:00,
2013-07-06 19:29:00,56.1,52.9,29.44,WSW,248,10.7,10.7,89,0.00,,,0.00,VWS V14.01,2013-07-07 02:29:00,
2013-07-06 19:34:00,56.1,52.9,29.44,SW,225,14.8,14.8,89,0.00,,,0.00,VWS V14.01,2013-07-07 02:34:00,
2013-07-06 19:39:00,56.1,53.2,29.44,WNW,292,11.0,11.0,90,0.00,,,0.00,VWS V14.01,2013-07-07 02:39:00,
2013-07-06 19:44:00,55.9,53.0,29.44,WSW,248,3.6,3.6,90,0.00,,,0.00,VWS V14.01,2013-07-07 02:44:00,
2013-07-06 19:49:00,56.1,53.2,29.44,WSW,248,11.2,11.2,90,0.00,,,0.00,VWS V14.01,2013-07-07 02:49:00,
2013-07-06 19:55:00,55.9,53.0,29.44,WSW,248,11.0,11.0,90,0.00,,,0.00,VWS V14.01,2013-07-07 02:55:00,
2013-07-06 20:00:00,55.9,53.0,29.44,WSW,248,15.7,15.7,90,0.00,,,0.00,VWS V14.01,2013-07-07 03:00:00,
2013-07-06 20:05:00,55.9,53.0,29.44,SW,225,10.1,10.1,90,0.00,,,0.00,VWS V14.01,2013-07-07 03:05:00,
2013-07-06 20:11:00,55.8,52.9,29.44,West,270,10.7,10.7,90,0.00,,,0.00,VWS V14.01,2013-07-07 03:11:00,
2013-07-06 20:16:00,55.8,53.2,29.44,WSW,248,13.0,13.0,91,0.00,,,0.00,VWS V14.01,2013-07-07 03:16:00,
2013-07-06 20:21:00,55.6,53.0,29.44,WSW,248,12.5,12.5,91,0.00,,,0.00,VWS V14.01,2013-07-07 03:21:00,
2013-07-06 20:26:00,55.6,53.0,29.47,SW,225,9.6,9.6,91,0.00,,,0.00,VWS V14.01,2013-07-07 03:26:00,
2013-07-06 20:31:00,55.6,53.0,29.47,WSW,248,12.8,12.8,91,0.00,,,0.00,VWS V14.01,2013-07-07 03:31:00,
2013-07-06 20:36:00,55.6,53.0,29.47,WSW,248,14.3,14.3,91,0.00,,,0.00,VWS V14.01,2013-07-07 03:36:00,
2013-07-06 20:42:00,55.6,53.3,29.47,WSW,248,9.6,9.6,92,0.00,,,0.00,VWS V14.01,2013-07-07 03:42:00,
2013-07-06 20:47:00,55.6,53.3,29.47,WSW,248,12.5,12.5,92,0.00,,,0.00,VWS V14.01,2013-07-07 03:47:00,
2013-07-06 20:52:00,55.6,53.3,29.47,WSW,248,12.5,12.5,92,0.00,,,0.00,VWS V14.01,2013-07-07 03:52:00,
2013-07-06 20:57:00,55.6,53.3,29.47,WSW,248,12.5,12.5,92,0.00,,,0.00,VWS V14.01,2013-07-07 03:57:00,
2013-07-06 21:01:00,55.6,53.3,29.47,WSW,248,12.5,12.5,92,0.00,,,0.00,VWS V14.01,2013-07-07 04:01:00,
2013-07-06 21:06:00,55.6,53.3,29.47,WSW,248,12.5,12.5,92,0.00,,,0.00,VWS V14.01,2013-07-07 04:06:00,
2013-07-06 21:11:00,55.6,53.3,29.47,WSW,248,12.5,12.5,92,0.00,,,0.00,VWS V14.01,2013-07-07 04:11:00,
2013-07-06 21:16:00,55.6,53.3,29.47,WSW,248,12.5,12.5,92,0.00,,,0.00,VWS V14.01,2013-07-07 04:16:00,
2013-07-06 21:21:00,55.0,53.1,29.47,NNE,22,12.1,12.1,93,0.00,,,0.00,VWS V14.01,2013-07-07 04:21:00,
2013-07-06 21:26:00,55.0,53.3,29.47,SSW,202,7.8,7.8,94,0.00,,,0.00,VWS V14.01,2013-07-07 04:26:00,
2013-07-06 21:31:00,55.0,53.3,29.47,WSW,248,6.5,6.5,94,0.00,,,0.00,VWS V14.01,2013-07-07 04:31:00,
2013-07-06 21:36:00,55.0,53.3,29.47,West,270,7.4,7.4,94,0.00,,,0.00,VWS V14.01,2013-07-07 04:36:00,
2013-07-06 21:41:00,55.0,53.3,29.50,WSW,248,13.0,13.0,94,0.00,,,0.00,VWS V14.01,2013-07-07 04:41:00,
2013-07-06 21:46:00,54.9,53.2,29.50,WSW,248,9.2,9.2,94,0.00,,,0.00,VWS V14.01,2013-07-07 04:46:00,
2013-07-06 21:51:00,54.9,53.2,29.50,WSW,248,13.4,13.4,94,0.00,,,0.00,VWS V14.01,2013-07-07 04:51:00,
2013-07-06 21:56:00,55.0,53.6,29.50,WSW,248,13.0,13.0,95,0.00,,,0.00,VWS V14.01,2013-07-07 04:56:00,
2013-07-06 22:01:00,55.0,53.6,29.50,SW,225,12.8,12.8,95,0.00,,,0.00,VWS V14.01,2013-07-07 05:01:00,
2013-07-06 22:06:00,55.0,53.6,29.50,WSW,248,4.9,4.9,95,0.00,,,0.00,VWS V14.01,2013-07-07 05:06:00,
2013-07-06 22:11:00,55.0,53.6,29.50,WSW,248,13.4,13.4,95,0.00,,,0.00,VWS V14.01,2013-07-07 05:11:00,
2013-07-06 22:16:00,55.0,53.6,29.50,WSW,248,4.9,4.9,95,0.00,,,0.00,VWS V14.01,2013-07-07 05:16:00,
2013-07-06 22:21:00,55.2,53.8,29.50,WSW,248,11.4,11.4,95,0.00,,,0.00,VWS V14.01,2013-07-07 05:21:00,
2013-07-06 22:26:00,55.2,53.8,29.50,WSW,248,10.1,10.1,95,0.00,,,0.00,VWS V14.01,2013-07-07 05:26:00,
2013-07-06 22:31:00,55.4,53.7,29.50,SW,225,11.4,11.4,94,0.00,,,0.00,VWS V14.01,2013-07-07 05:31:00,
2013-07-06 22:36:00,55.4,53.7,29.50,WSW,248,10.1,10.1,94,0.00,,,0.00,VWS V14.01,2013-07-07 05:36:00,
2013-07-06 22:41:00,55.4,53.7,29.50,WSW,248,8.7,8.7,94,0.00,,,0.00,VWS V14.01,2013-07-07 05:41:00,
2013-07-06 22:46:00,55.4,53.7,29.50,WSW,248,6.3,6.3,94,0.00,,,0.00,VWS V14.01,2013-07-07 05:46:00,
2013-07-06 22:51:00,55.4,53.7,29.50,WSW,248,6.3,6.3,94,0.00,,,0.00,VWS V14.01,2013-07-07 05:51:00,
2013-07-06 22:56:00,55.4,53.7,29.50,WSW,248,10.1,10.1,94,0.00,,,0.00,VWS V14.01,2013-07-07 05:56:00,
2013-07-06 23:01:00,55.4,53.7,29.50,WSW,248,8.1,8.1,94,0.00,,,0.00,VWS V14.01,2013-07-07 06:01:00,
2013-07-06 23:06:00,55.4,53.7,29.50,SW,225,12.5,12.5,94,0.00,,,0.00,VWS V14.01,2013-07-07 06:06:00,
2013-07-06 23:11:00,55.4,53.7,29.50,WSW,248,7.6,7.6,94,0.00,,,0.00,VWS V14.01,2013-07-07 06:11:00,
2013-07-06 23:16:00,55.4,53.7,29.50,WNW,292,5.4,5.4,94,0.00,,,0.00,VWS V14.01,2013-07-07 06:16:00,
2013-07-06 23:21:00,55.2,53.8,29.50,SW,225,8.7,8.7,95,0.00,,,0.00,VWS V14.01,2013-07-07 06:21:00,
2013-07-06 23:26:00,55.4,53.7,29.50,SW,225,6.5,6.5,94,0.00,,,0.00,VWS V14.01,2013-07-07 06:26:00,
2013-07-06 23:31:00,55.4,53.7,29.50,West,270,7.8,7.8,94,0.00,,,0.00,VWS V14.01,2013-07-07 06:31:00,
2013-07-06 23:36:00,55.4,53.7,29.50,West,270,6.0,6.0,94,0.00,,,0.00,VWS V14.01,2013-07-07 06:36:00,
2013-07-06 23:41:00,55.4,53.7,29.50,SW,225,9.8,9.8,94,0.00,,,0.00,VWS V14.01,2013-07-07 06:41:00,
2013-07-06 23:46:00,55.4,53.7,29.50,SW,225,5.4,5.4,94,0.00,,,0.00,VWS V14.01,2013-07-07 06:46:00,
2013-07-06 23:51:00,55.4,53.7,29.50,SW,225,5.6,5.6,94,0.00,,,0.00,VWS V14.01,2013-07-07 06:51:00,
2013-07-06 23:56:00,55.4,53.7,29.50,WSW,248,5.4,5.4,94,0.00,,,0.00,VWS V14.01,2013-07-07 06:56:00,